Regional Weather Roundup
Issued by NWS

Home | Current Version | Previous Version | Text Only | Print | Product List | Glossary On
Versions: 1 2 3 4 5 6 7 8 9 10 11 12 13 14 15 16 17 18 19 20 21 22 23 24 25 26 27 28 29 30 31 32 33 34 35 36 37 38 39 40 41 42 43 44 45 46 47 48 49 50
000
ASUS43 KLOT 281308
RWRIL

ILLINOIS REGIONAL WEATHER ROUNDUP
NATIONAL WEATHER SERVICE CHICAGO/ROMEOVILLE IL
800 AM CDT THU JUL 28 2016

NOTE: "FAIR" INDICATES FEW OR NO CLOUDS BELOW 12,000 FEET WITH NO
SIGNIFICANT WEATHER AND/OR OBSTRUCTIONS TO VISIBILITY.

* THESE STATIONS ARE NOT UNDER NWS QUALITY CONTROL. THEY ALSO MAY NOT
  REPORT WEATHER SUCH AS PRECIPITATION OR FOG.

ILZ001-002-007-009-015-016-024-281400-
NORTHWEST ILLINOIS

CITY           SKY/WX    TMP DP  RH WIND       PRES   REMARKS
MOLINE         SUNNY     77  70  79 W3        29.91R
STERLING*      MOSUNNY   74  71  91 CALM      29.91S FOG
SAVANNA*       SUNNY     73  70  92 CALM      29.90S
$$

ILZ003-004-008-010-011-017-018-281400-
NORTH CENTRAL ILLINOIS

CITY           SKY/WX    TMP DP  RH WIND       PRES   REMARKS
ROCKFORD       CLOUDY    78  68  71 E3        29.93R HX  80
FREEPORT*      SUNNY     71  69  95 CALM      29.93S FOG
ROCHELLE*      SUNNY     73  71  92 CALM      29.92S
DE KALB*       CLOUDY    74  70  88 CALM      29.94R
$$

ILZ005-006-012>014-019>023-281400-
NORTHEAST ILLINOIS

CITY           SKY/WX    TMP DP  RH WIND       PRES   REMARKS
CHICAGO-OHARE  CLOUDY    78  69  73 NE6       29.92R HX  80
CHICAGO-MIDWAY PTSUNNY   79  68  69 E5        29.92R HX  81
AURORA         MOSUNNY   75  70  84 E3        29.92R HAZE
LANSING*       CLOUDY    74  68  79 CALM      29.93R
JOLIET*        MOSUNNY   79  72  81 CALM      29.92R HX  81
WAUKEGAN       CLOUDY    74  71  91 E10       29.93R
DUPAGE AIRPORT MOSUNNY   76  68  76 E5        29.92R
KANKAKEE*      CLOUDY    72  69  90 CALM      29.93S
WHEELING       MOSUNNY   75  70  84 N5        29.93R
MORRIS*        MOSUNNY   75  73  92 CALM      29.91S
ROMEOVILLE*    PTSUNNY   75  68  79 CALM      29.92S
NORTHERLY ISL    N/A     77  71  82 E2          N/A
$$

LMZ740>746-281400-
SOUTHERN LAKE MICHIGAN

STATION/POSITION SKY/WX   TEMP    WIND        PRES    VSBY  WAVE
                          AIR SEA DIR/SP/G                  HT/PER
                          (F)     (DEG/KT/KT) (MB)    (MI)  (FT/S)
SOUTHERN BUOY              74 74   90/  6/  8 1012.6R         1
WILMETTE HARBOR            74 70   80/  2/  4   N/A           1/ 3
HARRISON CRIB              76      80/ 10/ 10   N/A
BURNHAM HARBOR             76      90/  3/  4   N/A
CALUMET HARBOR             75      CALM  /  1 1012.5R
BURNS HARBOR               73      CALM  /  4 1013.5R
MICHIGAN CITY              73     110/  4/  4   N/A
MICHIGAN CITY 6N           76 77  170/  4/  4   N/A           0
ST. JOSEPH                 74 76  120/  4/  4 1013.0R         1
$$

ILZ025>027-034>036-040-047-049-050-058-095>099-281400-
WEST-CENTRAL ILLINOIS

CITY           SKY/WX    TMP DP  RH WIND       PRES   REMARKS
QUINCY         SUNNY     72  72 100 W5        29.92R
GALESBURG*     SUNNY     74  71  91 NW5       29.92R
MACOMB*        MOSUNNY   73  70  92 N6        29.94R
JACKSONVILLE*  SUNNY     74  70  86 CALM      29.90S
PITTSFIELD*    MOSUNNY   73  69  87 CALM      29.93R
$$

ILZ028>032-037-038-041>044-048-051>054-059>061-281400-
CENTRAL ILLINOIS

CITY           SKY/WX    TMP DP  RH WIND       PRES   REMARKS
BLOOMINGTON    CLOUDY    75  70  84 E6        29.93R
DECATUR        CLOUDY    75  70  84 CALM      29.91S
PEORIA         SUNNY     77  74  90 E5        29.91R
LACON*         MOSUNNY   75  72  88 E5        29.90S
LINCOLN*       CLOUDY    75  74  97 CALM      29.91R
SPRINGFIELD    MOSUNNY   75  73  93 CALM      29.90F
TAYLORVILLE    CLOUDY    74  74  99 MISG      29.91S FOG
$$

ILZ033-039-045-046-055>057-062-063-281400-
EAST-CENTRAL ILLINOIS

CITY           SKY/WX    TMP DP  RH WIND       PRES   REMARKS
CHAMPAIGN      TSTM      72  70  93 S8        29.93S VSB 1
MATTOON        CLOUDY    74  72  93 S6        29.91R FOG
PARIS*         CLOUDY    74  74 100 CALM      29.92S FOG
$$

ILZ079-100>102-281400-
SOUTHWEST ILLINOIS

CITY           SKY/WX    TMP DP  RH WIND       PRES   REMARKS
ALTON          MOSUNNY   75  73  94 W7        29.91S
BELLEVILLE     MOSUNNY   77  77  99 CALM      29.89S
CAHOKIA*       SUNNY     78  73  84 CALM      29.90S HX  81
SPARTA*        MOSUNNY   75  73  92 SW3       29.92S
$$

ILZ064>066-069>071-074>076-080>082-084>086-088>090-092>094-281400-
SOUTH-CENTRAL ILLINOIS

CITY           SKY/WX    TMP DP  RH WIND       PRES   REMARKS
CARBONDALE     PTSUNNY   75  72  90 S6        29.92R
CAIRO*         CLOUDY    74  74  98 CALM      29.92R
EFFINGHAM*     CLOUDY    74  74 100 CALM      29.93R FOG
MARION         CLOUDY    75  75 100 S7        29.93R FOG
MT. VERNON     CLOUDY    75  70  83 MISG      29.92R
CENTRALIA*     PTSUNNY   75  74  97 S3        29.91S FOG
SALEM*         CLOUDY    76  73  91 S3        29.92R
METROPOLIS*    CLOUDY    74  74  97 CALM      29.93S
$$

ILZ067-068-072-073-078-083-087-091-281400-
SOUTHEAST ILLINOIS

CITY           SKY/WX    TMP DP  RH WIND       PRES   REMARKS
LAWRENCEVILLE  CLOUDY    75  73  93 S6        29.92S
FLORA*         CLOUDY    75  74  96 SW3       29.92S
FAIRFIELD*     CLOUDY    74  73  98 CALM      29.91R FOG
HARRISBURG*    CLOUDY    75  73  96 SW5       29.92R
ROBINSON*      CLOUDY    74  73  96 S3        29.92R
CARMI*         CLOUDY    74  73  99 SW6       29.91R
$$

ABBREVIATIONS USED IN REMARKS
   TC - TEMPERATURE IN CELSIUS
  WCI - WIND CHILL INDEX
   HX - HEAT INDEX
  VSB - VISIBILITY
$$




USA.gov is the U.S. government's official web portal to all federal, state and local government web resources and services.